Location: Newark
(49.3000°N, 9.4667°E)
Time: 03:20:47
(UTC+00:00)

Transit 4A - Pass Details

Date: 27 May 2019
Orbit: 862 x 983 km, 66.8° (Epoch: 24 June)

Event Time Altitude Azimuth Distance (km) Brightness Sun altitude
Rises 21:01:58 0° 324° (NW) 3,696 13.1 -13.0°
Reaches altitude 10° 21:04:38 10° 329° (NNW) 2,747 11.9 -13.3°
Maximum altitude 21:10:56 54° 46° (NE) 1,184 8.5 -13.8°
Enters shadow 21:16:09 15° 120° (ESE) 2,364 9.5 -14.2°
